STARLINK-1542, 46073

Orbit data source: Space-Track

STARLINK-1542, 46073 is a payload satellite owned by SpaceX/Seattle (US) in LEO that was launched on Fri, 07 Aug 2020 UTC via an FALCON 9 launch vehicle from the Air Force Eastern Test Range (AFETR). Payload-class satellites include a variety of spacecraft equipped with specific instruments for various scientific and technological missions. These include communications satellites like Starlink; space stations such as the ISS; scientific satellites like the Hubble; Earth observation satellites from companies like Planet Labs, Umbra, and HawkEye 360; GPS; miniature CubeSats for education and research; and military/defense satellites.

Loading next visibility...
Identifier
46073, 2020-055AY
Orbit
LEO
Country
Flag of USUS
Related business
Manufacturer
SpaceX/Seattle
Mission
Operational Commercial Communications
Bus & Motor
STARLINK, Unknown motor
Mass
260 kg wet, ~248 kg dry
Launch date (UTC)
2020-08-07 (5 years ago)
Launch vehicle
FALCON 9
Launch site
Air Force Eastern Test Range (AFETR)
Object type
Payload
Rocket body
Debris
Shape & HBR
Box + 1 Pan, 10.1 m
Radar Cross Section
13.562 m², Large (>1 m²)

Expand to show TLE details & history
Last TLE update: 9 hours ago

TLE from 9 hours ago
0 STARLINK-1542
1 46073U 20055AY  25302.37584539  .00002032  00000-0  15521-3 0  9992
2 46073  53.0555 326.1091 0001513  87.4313 272.6849 15.06414086289511
Epoch: 2025-10-29T09:01Z
TLE epoch observation values (Epoch: 2025-10-29T09:01:13.041Z)
Latitude
-0.00005°
Longitude
152.85485°
Altitude
547.999 km
Speed
7.589 km/s
True Right ascension
21h 44m 26s
True Declination
0° 00' 00"
Sunlit
Object was in daylight at epoch
Visualization orbit readout
Latitude
Unknown
Longitude
Unknown
Altitude
Unknown
Speed
Unknown
Apparent Right ascension
Unknown
Apparent Declination
Unknown
Sunlit
N/A
Visualization observer readout
Local Sidereal Time
14:02:06
Azimuth
Unknown
Elevation
Unknown
Doppler factor
Unknown
Orbital elements
Apogee altitude
548.487 km
Perigee altitude
546.391 km
Semi-major axis
6,925.576 km
Eccentricity
0.00015
Inclination
53.0555°
RAAN
326.1091°
Arg. of periapsis
87.4313°
True anomaly
272.66758°
Mean anomaly
272.6849°
Eccentric anomaly
272.67624°
Mean motion
3.76582 °/min
Orbital period
95.6 mins
BSTAR
0.00015521
Loading maneuver chart data...
Computing Atmospheric mass density...
Loading historical data...
Loading historical data...
Loading historical data...
Loading historical data...
Loading historical data...
Loading historical data...
Loading historical data...

Documentation

Showing up to 5 results
|